Regional Weather Roundup
Issued by NWS

Home | Current Version | Previous Version | Graphics & Text | Print | Product List | Glossary On
Versions: 1 2 3 4 5 6 7 8 9 10 11 12 13 14 15 16 17 18 19 20 21 22 23 24 25 26
000
ASUS45 KPSR 180710
RWRAZ

ARIZONA HOURLY REGIONAL WEATHER ROUNDUP
NATIONAL WEATHER SERVICE PHOENIX AZ
1200 AM MST SUN FEB 18 2018

NOTE: FAIR INDICATES FEW OR NO CLOUDS BELOW 12,000 FEET WITH NO
SIGNIFICANT WEATHER AND/OR OBSTRUCTIONS TO VISIBILITY.

AZZ001>003-036-180800-
NORTHWEST ARIZONA

CITY           SKY/WX    TMP DP  RH WIND       PRES   REMARKS
BULLHEAD CITY  PTCLDY    57  21  24 CALM      29.98F
KINGMAN        PTCLDY    43  27  53 S5        30.03F
$$

AZZ004>008-015-016-018-180800-
NORTH CENTRAL ARIZONA

CITY           SKY/WX    TMP DP  RH WIND       PRES   REMARKS
GRAND CANYON   PTCLDY    24  21  88 CALM      30.10F
WILLIAMS       PTCLDY    36  28  75 SE8       30.08F WCI  29
PRESCOTT       PTCLDY    36  31  82 S5        30.08F WCI  32
FLAGSTAFF      PTCLDY    26  22  84 CALM      30.12F
PAYSON         PTCLDY    39  34  81 CALM      30.11S
PAGE           CLEAR     41  21  44 CALM      30.01F
$$

AZZ009>014-017-180800-
NORTHEAST ARIZONA

CITY           SKY/WX    TMP DP  RH WIND       PRES   REMARKS
WINSLOW        PTCLDY    36  25  64 CALM      30.07F
SAINT JOHNS    PTCLDY    35  32  88 CALM      30.09F
WINDOW ROCK    CLEAR     26  22  84 CALM      30.11F
SHOW LOW       PTCLDY    41  37  87 S18G24    30.12S
$$

AZZ540-542>544-546-548-180800-
GREATER PHOENIX AREA

CITY           SKY/WX    TMP DP  RH WIND       PRES   REMARKS
PHOENIX        MOCLDY    62  48  60 NE3       29.99F
BUCKEYE        CLOUDY    52  52 100 N7        30.01F
LUKE AFB       PTCLDY    53  48  84 NW6       29.99F
DEER VALLEY    PTCLDY    54  46  74 CALM      30.00F
SCOTTSDALE     PTCLDY    56  47  71 NE3       30.02F
MESA-GATEWAY   MOCLDY    54  48  82 E3        30.03F
$$

AZZ539-553-180800-
SOUTHWEST MARICOPA COUNTY AND PINAL COUNTY

CITY           SKY/WX    TMP DP  RH WIND       PRES   REMARKS
CASA GRANDE      N/A     55  49  80 N3        30.01F
GILA BEND      FAIR      55  49  81 S6        30.00S
$$

AZZ503-504-507>509-180800-
SOUTHEAST ARIZONA

CITY           SKY/WX    TMP DP  RH WIND       PRES   REMARKS
TUCSON         PTCLDY    57  51  80 CALM      30.06F
DAVIS-MONTHAN  PTCLDY    53  53 100 SE3       30.05F
NOGALES        CLEAR     49  46  90 SE3       30.08F
SIERRA VISTA   CLEAR     51  46  83 CALM      30.10F
DOUGLAS        CLEAR     50  48  93 E6        30.09F
SAFFORD        CLEAR     50  47  89 SW3       30.06F
$$

AZZ532-180800-
SOUTHWEST ARIZONA

CITY           SKY/WX    TMP DP  RH WIND       PRES   REMARKS
YUMA           CLEAR     55  28  35 CALM      30.00F
$$

CAZ041-043-047-048-061-525>527-560>570-180800-
SOUTHERN CALIFORNIA

CITY           SKY/WX    TMP DP  RH WIND       PRES   REMARKS
DOWNTOWN L.A.  CLEAR     56  50  80 CALM      30.03S
L.A. AIRPORT   PTCLDY    58  51  78 SW8       30.04R
SAN DIEGO      CLEAR     60  36  40 CALM      30.06S
BURBANK        CLEAR     56  31  38 CALM      30.03S
ONTARIO        PTCLDY    56  34  43 CALM      30.04S
RIVERSIDE      PTCLDY    54  36  50 NE3       30.04F
PALM SPRINGS   PTCLDY    56  21  25 N5        30.03F
EL CENTRO NAS  CLEAR     52  24  33 CALM      30.01F
IMPERIAL       CLEAR     53  31  42 CALM      29.99F
BLYTHE         PTCLDY    52  21  29 CALM      30.00F
NEEDLES        PTCLDY    59  25  27 SW3       29.98F
$$

NVZ020-UTZ003-180800-
SOUTHERN NEVADA-UTAH

CITY           SKY/WX    TMP DP  RH WIND       PRES   REMARKS
LAS VEGAS      PTCLDY    51  21  30 CALM      29.96F
SALT LAKE CITY CLOUDY    56  17  21 S22G35    29.72F
$$

NMZ009-TXZ055-180800-
NEW MEXICO-WEST TEXAS

CITY           SKY/WX    TMP DP  RH WIND       PRES   REMARKS
ALBUQUERQUE    PTCLDY    42  29  59 SE6       30.10F
EL PASO        CLOUDY    51  47  86 NE6       30.10F
$$


........................KEY........................
SKY/WX - SKY CONDITION/WEATHER
TMP    - TEMPERATURE IN FAHRENHEIT
DP     - DEW POINT IN FAHRENHEIT
RH     - RELATIVE HUMIDITY IN PERCENT
WIND   - DIRECTION AND SPEED IN MILES PER HOUR (MPH)
VRB    - VARIABLE WIND DIRECTION
PRES   - MEAN SEA LEVEL PRESSURE IN INCHES OF MERCURY
         F - FALLING PRESSURE   R - RISING PRESSURE
         S - STEADY PRESSURE
VSB    - VISIBILITY IN MILES
HX     - HEAT INDEX IN FAHRENHEIT
WCI    - WIND CHILL INDEX IN FAHRENHEIT
TC     - TEMPERATURE IN CELSIUS WHICH IS ALSO KNOWN AS
         TEMPERATURE IN CENTIGRADE
AFB    - AIR FORCE BASE
         LUKE AFB IS LUKE AIR FORCE BASE
         DAVIS-MONTHAN IS DAVIS-MONTHAN AIR FORCE BASE
NAS    - NAVAL AIR STATION
         EL CENTRO NAS IS EL CENTRO NAVAL AIR STATION
N/A    - NOT AVAILABLE





USA.gov is the U.S. government's official web portal to all federal, state and local government web resources and services.